Погода Мыс Болванский

Погода Мыс Болванский : погода сейчас, прогноз погоды и архив. Всё, что Вы хотите узнать о погоде Мыс Болванский!

Поиск расширенной информации на нашем сайте:

Полезная информация: Эта компания taganrog.delinet.ru придала наглядности наработки взято отсюда

Другие новости

Новости СМИ2

Главная страница сайта

Новости сайта

03.07.2017

Напоминаем, что на нашем специализированном сайте Метеоцентр.Азия вы можете получить высокодетализированные автоматические прогнозы погоды по пунктам России, СНГ и мира в авиационном формате (включающие направление и скорость ветра, видимость, явления погоды, количество и форму облачности, нижнюю и верхнюю границу облачности).

Рекомендуем: Где купить металлический шкаф litpolmebel.com.

Погода Мыс Болванский - сегодня

Время (UTC), дата Ветер
(°,м/с) 
Видим.   Явления Облачность Т
(°С)
Тd
(°С)
f(%) Тe
(°С)
Pmin
(гПа)
dP
(гПа)
Po
(мм)
O2
(г/м3)
Тmin Tmax R s Состояние
почвы
03 12.02.18 240 (ЮЗ) 2000 м  слаб. ливневой снег  10/10 420 м кучево-дожд. 
[Cb cap]
-10.6 -11.1 96 -17  1022.4  -1.3  766  322  -13      неравномерный
сухой снег
100% 
03 13.02.18 230 (ЮЗ) 8{10}  10 км  позёмок{ливн. осадки}  10/10 720 м 
[Sc]
-9.6 -9.9 98 -16  1018.7  -0.6  763  320  -15    0.0  неравномерный
сухой снег
100% 
18 13.02.18 230 (ЮЗ) 10 км  позёмок  4/0 средняя 
[Ac trans]
-9.3 -9.6 98 -15  1017  -0.2  762  319           
03 14.02.18 280 (З) 2000 м  слаб. ливневой снег  10/10 570 м кучево-дожд. 
[Cb cap]
-5 -5 100 -9  1017.5  0.2  762  313  -9.5    0.0  неравномерный
сухой снег
100% 
12 14.02.18 270 (З) 20000 м    3/3 300 м 
[Sc]
-7.7 -7.7 100 -13  1019.9  0.8  764  318           
18 14.02.18 240 (ЮЗ) 10 км    10/10 450 м 
[Sc]
-7 -7 100 -11  1020.7  0.3  764  317           
21 14.02.18 240 (ЮЗ) 10 км    8/0 средняя 
[Ac trans]
-7.2 -7.2 100 -12  1020.5  -0.2  764  317           
00 15.02.18 260 (З) 10 км    ясно 
-4.5 -4.5 100 -8  1020.2  -0.3  764  314           
03 16.02.18 240 (ЮЗ) 8{13}  10 км  позёмок  10/0 средняя 
[Ac und]
-3.2 -3.3 99 -8  1014.9  -0.3  760  310  -4.5    0.3  неравномерный
сухой снег
100% 
06 16.02.18 230 (ЮЗ) 8-10{10}  10 км  позёмок  10/10 960 м 
[Sc]
-5.1 -5.1 100 -10  1014  -0.8  760  312  -5.1         
12 16.02.18 220 (ЮЗ) 8{10}  10 км  позёмок  10/10 900 м 
[Sc]
-5.3 -5.5 98 -11  1012.3  -1.3  758  312           
15 16.02.18 220 (ЮЗ) 7{10}  10 км  позёмок  10/10 400 м 
[Sc]
-4 -4 100 -9  1010.7  -1.5  757  310    -3.1       
03 17.02.18 220 (ЮЗ) 2{11}  10 км    9/0 средняя 
[Ac trans]
-4.7 -4.7 100 -6  1007.4  -0.7  755  310  -6.3      неравномерный
сухой снег
100% 
15 17.02.18 080 (В) 9-11{11}  1000 м  сильн. снег  10/10 360 м 
[Ns]
-3.7 -3.7 100 -9  1007.8  0.6  755  309    -3.3     
03 18.02.18 050 (СВ) 12-15{15}  1000 м  сильная метель  10/10 360 м 
[Sc]
-10.9 -11.4 96 -19  1013.7  759  320  -10.9      неравномерный
сухой снег
100% 
12 18.02.18 040 (СВ) 8-11{12}  10 км  позёмок  8/0 
-15.7 -16.9 90 -23  1019.9  1.8  764  328      603     
15 18.02.18 050 (СВ) 7{11}  10 км  позёмок  8/0 средняя 
[Ac trans]
-16.3 -17.6 90 -23  1021.3  1.5  765  329    -10.9       
18 18.02.18 040 (СВ) 10 км  позёмок  8/0 средняя 
[Ac trans]
-17 -18.6 87 -24  1022.2  -0.9  766  331           
09 19.02.18 040 (СВ) 10 км    10/10 660 м 
[Sc]
-13.9 -15.7 86 -14  1026.4  769  328           
12 19.02.18 240 (ЮЗ) 10 км    10/10 630 м 
[Sc]
-14.6 -15.9 90 -18  1026.8  0.4  769  329           
18 19.02.18 240 (ЮЗ) 10 км  позёмок  ясно 
-15 -16.4 89 -22  1026.9  -0.9  768  329           
03 20.02.18 220 (ЮЗ) 8{11}  10 км  позёмок  ясно 
-18.6 -19.9 89 -27  1025  768  334  -18.6      неравномерный
сухой снег
100% 
09 20.02.18 220 (ЮЗ) 6{10}  10 км  позёмок  ясно 
-20.1 -21.5 89 -27  1026.2  1.1  769  336           
12 20.02.18 220 (ЮЗ) 10 км    ясно 
-21.9 -23.6 86 -26  1027.1  0.8  769  339           
15 20.02.18 200 (Ю) 10 км    ясно 
-21.4 -22.9 88 -28  1027.7  0.6  770  338    -18.4       
Время (UTC), дата Ветер
(°,м/с) 
Видим.   Явления Облачность Т
(°С)
Тd
(°С)
f(%) Тe
(°С)
Pmin
(гПа)
dP
(гПа)
Po
(мм)
O2
(г/м3)
Тmin Tmax R s Состояние
почвы

Для получения пояснительной информации подведите курсор к названию столбца.

ПОГОДА Мыс Болванский - архив

Всё, что Вы хотите узнать о погоде Мыс Болванский - удобно и подробно!

Выберите нужную дату (начиная с 1 января 2015* года) и нажмите кнопку "Найти".
Будут отображены архивные сводки погоды по пункту Мыс Болванский, начиная с указанной даты.


Отображать данные в формате CSV (для использования в таблицах Excel)


Внимание! Наш архив погоды предназначен исключительно для личного некоммерческого использования в познавательных целях. Если Вам необходимы официальные справки о состоянии погоды (для производственных, юридических, коммерческих и т.п. целей), обращайтесь в органы Росгидромета.

*Примечание: данная дата относится к архиву по метеостанциям СССР (Россия, СНГ, Балтия).
Архив по метеостанциям Зарубежной Европы и Азии (кроме Китая) хранится 10 дней, по другим регионам земного шара (Китай, Африка, Америка, Австралия, Океания) - 1 день.

Мыс Болванский - район местоположения метеостанции


Название, широта, долгота, высота метеостанции:
Мыс Болванский 70.4°ш. 59.1°д. 13 м над ур. моря [Российская Федерация]

Дополнительная информация

В oтличие oт бoльшинства пoгoдных сайтoв мы публикуем пoдрoбную метеoинфoрмацию в детальнoм прoфессиoнальнoм фoрмате.

Характеристики температуры и влажнoсти вoздуха измеряются на высoте 2 м в тени вдали oт зданий и деревьев.
Скoрoсть ветра измеряется на высoте 10 м (на урoвне рoста челoвека скoрoсть ветра ниже в 1.5-2 раза). Если метеoстанция нахoдится в гoрoде или в лесу, тo скoрoсть ветра занижена на 2-4 м/с пo сравнению с oткрытым местoм. Скoрoсть ветра над акватoриями крупных рек и oзёр, а также на вершинах хoлмoв на 2-5 м/с выше, чем в oбычных услoвиях.
Атмoсфернoе давление в разных тoчках местнoсти мoжет значительнo oтличаться oт давления на метеoстанции, в зависимoсти oт услoвий рельефа (при пoдъёме на 10 м давление пoнижается примернo на 1 мм рт.ст.).